Location: ??????
(55.6130°N, 37.7882°E)
Time: 21:46:00
(UTC+00:00)

Envisat - Pass Details

Date: 29 June 2024
Orbit: 762 x 764 km, 98.3° (Epoch: 21 July)

Event Time Altitude Azimuth Distance (km) Brightness Sun altitude
Rises 23:15:23 0° 26° (NNE) 3,241 8.8 -8.2°
Reaches altitude 10° 23:18:50 10° 51° (NE) 2,309 6.6 -8.0°
Maximum altitude 23:21:34 14° 84° (E) 2,010 5.6 -7.9°
Drops below altitude 10° 23:24:17 10° 116° (ESE) 2,299 5.5 -7.7°
Sets 23:27:41 0° 141° (SE) 3,219 6.0 -7.5°
